#timestamp,LO_Frequency,Hit,StdDev 
1544860815.5,286046996.7,N
1544860835.4,286046999.4,N
1544860855.2,286046996.6,N
1544860875.1,286046997.0,N
1544860876.0,286046997.0,N
1544860895.8,286046999.5,N
1544860915.7,286046997.5,N
1544860935.5,286046997.5,N
1544860955.3,286046999.6,N
1544860975.2,286046997.5,N
1544860995.0,286046996.2,Y
1544860995.9,286046996.2,P
1544861015.8,286046996.7,P
1544861035.6,286046997.2,P
1544861055.4,286046996.8,Y
1544861075.3,286047001.5,P
1544861095.1,286047001.6,N
1544861115.9,286047002.8,N
1544861135.7,286047002.4,N
1544861155.5,286047002.1,N
1544861175.4,286047002.8,N
1544861195.2,286047002.7,N
1544861215.0,286047000.0,N
1544861215.9,286047000.0,N
1544861235.8,286047000.8,N
1544861255.6,286046998.1,N
1544861275.5,286047001.2,N
1544861295.3,286047000.2,N
1544861315.1,286047000.0,N
1544861335.9,286046999.9,N
1544861355.7,286046999.7,N
1544861375.5,286046999.9,N
1544861395.4,286046998.1,N
1544861415.2,286046998.5,N
1544861435.1,286046998.5,N
1544861436.0,286046998.5,N
1544861455.8,286046998.8,N
1544861475.6,286047000.8,N
1544861495.5,286047000.4,N
1544861515.3,286047000.6,N
1544861535.1,286046998.9,N
1544861555.9,286046999.3,N
1544861575.7,286046999.3,N
1544861595.6,286046999.4,N
1544861615.4,286047001.1,N
1544861635.2,286047000.8,N
1544861655.1,286047000.4,N
1544861656.0,286047000.4,N
1544861675.8,286046998.5,N
1544861695.7,286046998.2,N
1544861715.5,286046998.7,N
1544861735.3,286047000.8,N
1544861755.2,286047000.0,N
1544861775.0,286047000.7,N
1544861775.9,286047000.7,N
1544861795.8,286047001.1,N
1544861815.6,286046998.1,N
1544861835.4,286046998.6,N
1544861855.3,286047000.9,N
1544861875.1,286047002.8,N
1544861895.8,286047001.9,N
1544861915.7,286047000.6,N
1544861935.5,286047000.4,N
1544861955.4,286047000.5,N
1544861975.2,286047000.9,N
1544861995.0,286047000.6,N
1544861995.9,286047000.6,N
1544862015.8,286047000.9,N
1544862035.6,286047002.7,N
1544862055.4,286047002.4,N
1544862075.3,286047000.1,N
1544862095.1,286047000.0,N
1544862115.9,286047000.7,N
1544862135.7,286047001.2,N
1544862155.5,286046998.5,N
1544862175.4,286047001.1,N
1544862195.2,286047001.1,N
1544862215.0,286047000.8,N
1544862215.9,286047000.8,N
1544862235.8,286046999.8,N
1544862255.6,286047002.6,N
1544862275.5,286047000.6,N
1544862295.3,286047002.8,N
1544862315.1,286046998.1,N
1544862335.9,286046999.0,N
1544862355.7,286047000.8,N
1544862375.5,286047000.7,N
1544862395.4,286046998.1,N
1544862415.2,286046999.4,N
1544862435.1,286046996.5,N
1544862436.0,286046996.5,N
1544862455.8,286046997.5,N
1544862475.6,286046997.3,N
1544862495.8,286046997.0,N
1544862515.7,286046996.5,N
1544862535.5,286046998.9,N
1544862555.4,286046997.0,N
1544862575.2,286046997.3,N
1544862595.0,286046997.4,N
1544862595.9,286046997.4,N
1544862615.8,286046995.8,N
1544862635.6,286046993.3,Y
1544862655.5,286046996.1,P
1544862675.3,286046994.9,P
1544862695.1,286046996.4,N
1544862715.9,286046993.6,Y
1544862735.7,286046996.9,P
1544862755.5,286046997.4,P
1544862775.4,286046996.5,P
1544862795.2,286046999.1,N
1544862815.1,286046999.5,N
1544862816.0,286046999.5,N
1544862835.8,286046996.9,N
1544862855.6,286046996.8,N
1544862875.5,286046997.0,N
1544862895.3,286046997.3,N
1544862915.1,286046997.5,N
1544862935.9,286046995.0,Y
1544862955.7,286046999.4,P
1544862975.6,286046998.7,N
1544862995.4,286046998.6,N
1544863015.2,286047001.0,N
1544863035.1,286047000.3,N
1544863036.0,286047000.3,N
1544863055.8,286047002.2,N
1544863075.7,286046999.7,N
1544863095.5,286046999.7,N
1544863115.3,286047000.6,N
1544863135.2,286047000.2,N
1544863155.0,286047000.1,N
1544863155.9,286047000.1,N
1544863175.8,286047000.2,N
1544863195.6,286047000.5,N
1544863215.1,286047000.4,N
1544863235.9,286047002.8,N
1544863255.7,286047002.4,N
1544863275.5,286047002.0,N
1544863295.4,286047000.5,N
1544863315.2,286046998.1,N
1544863335.1,286046998.1,N
1544863336.0,286046998.1,N
1544863355.8,286047000.9,N
1544863375.8,286047001.0,N
1544863395.7,286046998.6,N
1544863415.5,286046998.1,N
1544863435.3,286047001.0,N
1544863455.2,286047000.8,N
1544863475.0,286047000.5,N
1544863475.9,286047000.5,N
1544863495.8,286047001.1,N
1544863515.6,286046998.1,N
1544863535.4,286046996.7,N
1544863555.3,286046997.0,N
1544863575.1,286046998.9,N
1544863595.8,286046998.6,N
1544863615.7,286046998.8,N
1544863635.5,286047001.2,N
1544863655.4,286047000.3,N
1544863675.2,286047000.5,N
1544863695.0,286047000.8,N
1544863695.9,286047000.8,N
1544863715.8,286047000.7,N
1544863735.6,286046998.5,N
1544863755.5,286047000.6,N
1544863775.3,286046999.8,N
1544863795.1,286047002.2,N
1544863815.9,286047000.5,N
1544863835.7,286047000.1,N
1544863855.5,286047000.1,N
1544863875.4,286047002.7,N
1544863895.2,286047002.1,N
1544863915.1,286047002.4,N
1544863916.0,286047002.4,N
1544863935.8,286047001.5,N
1544863955.1,286047003.1,N
1544863975.9,286047004.0,N
1544863995.7,286047004.3,N
1544864015.5,286047005.7,Y
1544864035.4,286047004.2,P
1544864055.2,286047001.7,N
1544864075.1,286047001.6,N
1544864076.0,286047001.6,N
1544864095.8,286047001.7,N
1544864115.6,286047003.9,Y
1544864135.5,286047000.6,P
1544864155.3,286047000.4,N
1544864175.2,286047001.1,N
1544864195.9,286046998.2,Y
1544864215.7,286046998.8,P
1544864235.6,286046998.5,N
1544864255.4,286047001.0,N
1544864275.2,286046998.1,N
1544864295.1,286046999.5,N
1544864296.0,286046999.5,N
1544864315.8,286046999.6,N
1544864335.7,286046998.7,N
1544864355.5,286046998.4,N
1544864375.3,286046999.0,N
1544864395.2,286046998.2,N
